Showing default

OPS 9327 (IDSCS 14), 2654

Orbit data source: Space-Track

OPS 9327 (IDSCS 14), 2654 is a payload satellite owned by USAF SSD (US) in GEO that was launched on Wed, 18 Jan 1967 UTC via a TITAN IIIC launch vehicle from the Air Force Eastern Test Range (AFETR). Payload-class satellites include a variety of spacecraft equipped with specific instruments for various scientific and technological missions. These include communications satellites like Starlink; space stations such as the ISS; scientific satellites like the Hubble; Earth observation satellites from companies like Planet Labs, Umbra, and HawkEye 360; GPS; miniature CubeSats for education and research; and military/defense satellites.

Not visible in the next 10 days
Identifier
2654, 1967-003G
Orbit
GEO
Last TLE update
3 days ago
Origin
Manufacturer
Philco-Ford WDL
Mission
Non-operational Defense Communications
Bus & Motor
IDCSP, Unknown motor
Mass
45 kg wet, 45 kg dry
Launch date (UTC)
1967-01-18 (58 years ago)
Launch vehicle
TITAN IIIC
Launch site
Air Force Eastern Test Range (AFETR)
Object type
Payload
Rocket body
Debris
Shape & HBR
Ico Poly, 0.9 m
Radar Cross Section
0.926 m², Medium (>0.1 m² and < 1m²)

Expand to show TLE details & history

TLE from 3 days ago
0 OPS 9327 (IDSCS 14)
1 02654U 67003G   25125.88656002 -.00000132  00000-0  00000-0 0  9990
2 02654   7.3690  50.7778 0058461  38.4600 160.3934  1.07512016135090
Epoch: 2025-05-05T21:16Z
Definitive object data (Epoch: 2025-05-05T21:16:38.785Z)
Latitude
-2.4136°
Longitude
66.56328°
Altitude
34,093.577 km
Speed
3.13 km/s
True Right ascension
16h 38m 52s
True Declination
-2° 24' 40"
Sunlit
Object was in daylight at TLE epoch
Visualization TLE readout
Latitude
6.0951°
Longitude
-76.89507°
Altitude
33,646.392 km
Speed
3.165 km/s
Apparent Right ascension
06h 38m 07s
Apparent Declination
0° 14' 37"
Sunlit
Object is in daylight
Visualization observer readout
Local Sidereal Time
13:49:27
Azimuth
281.852° WNW
Elevation
-13.425°
Doppler factor
1
Orbital elements
Apogee altitude
34,108.076 km
Perigee altitude
33,637.454 km
Semi-major axis
40,250.902 km
Eccentricity
0.0058461
Inclination
7.369°
RAAN
50.7778°
Arg. of periapsis
38.46°
True anomaly
160.61666°
Mean anomaly
160.3934°
Eccentric anomaly
160.50518°
Mean motion
0.26877 °/min
BSTAR
Unknown
Orbital period
1339.44 mins
Loading historical data...
2654 neighbors
Loading maneuver chart data...
Loading SW <> Apogee altitude chart data...
Loading historical data...
Loading historical data...
Loading historical data...
Loading historical data...
Loading historical data...
Loading historical data...
Loading historical data...

OPS 9327 (IDSCS 14) Visibility forecast

Observer location: undefined°, undefined°

OPS 9327 (IDSCS 14) is not visible in the next 10 days
Span
Click to sort rows by Start time (UTC) header in descending order
Start Az.
Max El. time (UTC)
Max El. Az.
Max El.
End time (UTC)
End Az.
|